When you browse on this site, cookies collect data to enhance your experience and personalize the content and advertising you see.
Visit our Privacy Policy to learn more. By continuing to use the site, you agree to this use of cookies and data.
  • In Schweiz
  • Länderverzeichnis
  • Für 7 Tage
  • Wassertemperatur
  • Satellitenkarten
  • Wetterkarte
  • Widgets
  • user-avatar
    Anmelden

    Stündliche Wetter Mirkow

    Heute, 24 April, Mittwoch

    Zeit Temperatur Niederschläge Wind Luftdruck Luftfeuchtigkeit
    00:00 +11°C° 0 mm 4 m/S 746 mmHg 70%
    01:00 +10°C° 0 mm 4 m/S 745 mmHg 76%
    02:00 +10°C° 0 mm 4 m/S 745 mmHg 78%
    03:00 +10°C° 0 mm 4 m/S 745 mmHg 79%
    04:00 +8°C° 0 mm 4 m/S 745 mmHg 81%
    05:00 +9°C° 0 mm 5 m/S 745 mmHg 77%
    06:00 +10°C° 0 mm 5 m/S 745 mmHg 74%
    07:00 +13°C° 0 mm 6 m/S 745 mmHg 69%
    08:00 +14°C° 0 mm 6 m/S 745 mmHg 65%
    09:00 +16°C° 0 mm 7 m/S 745 mmHg 61%
    10:00 +17°C° 0 mm 7 m/S 745 mmHg 56%
    11:00 +17°C° 0 mm 6 m/S 745 mmHg 57%
    12:00 +19°C° 0 mm 6 m/S 745 mmHg 58%
    13:00 +19°C° 0 mm 5 m/S 745 mmHg 58%
    14:00 +19°C° 0 mm 5 m/S 745 mmHg 59%
    15:00 +19°C° 0 mm 5 m/S 745 mmHg 60%
    16:00 +19°C° 0 mm 4 m/S 745 mmHg 61%
    17:00 +19°C° 0 mm 4 m/S 745 mmHg 64%
    18:00 +18°C° 0 mm 4 m/S 745 mmHg 67%
    19:00 +17°C° 0 mm 4 m/S 745 mmHg 70%
    20:00 +15°C° 0 mm 4 m/S 745 mmHg 70%
    21:00 +15°C° 0 mm 4 m/S 745 mmHg 70%
    22:00 +14°C° 0 mm 4 m/S 745 mmHg 70%
    23:00 +14°C° 0 mm 5 m/S 745 mmHg 70%

    Morgen, 25 April, Donnerstag

    Zeit Temperatur Niederschläge Wind Luftdruck Luftfeuchtigkeit
    00:00 +14°C° 0 mm 5 m/S 745 mmHg 70%
    01:00 +14°C° 0 mm 5 m/S 745 mmHg 70%
    02:00 +13°C° 0 mm 5 m/S 745 mmHg 73%
    03:00 +13°C° 0 mm 5 m/S 745 mmHg 77%
    04:00 +12°C° 0 mm 5 m/S 745 mmHg 80%
    05:00 +13°C° 0 mm 5 m/S 745 mmHg 78%
    06:00 +15°C° 0 mm 5 m/S 745 mmHg 76%
    07:00 +16°C° 0 mm 6 m/S 745 mmHg 74%
    08:00 +17°C° 0 mm 5 m/S 745 mmHg 70%
    09:00 +19°C° 0 mm 5 m/S 745 mmHg 66%
    10:00 +20°C° 0 mm 4 m/S 746 mmHg 62%
    11:00 +21°C° 0 mm 4 m/S 746 mmHg 60%
    12:00 +21°C° 0 mm 3 m/S 746 mmHg 58%
    13:00 +22°C° 0 mm 3 m/S 746 mmHg 56%
    14:00 +22°C° 0 mm 3 m/S 746 mmHg 55%
    15:00 +24°C° 0 mm 2 m/S 746 mmHg 54%
    16:00 +24°C° 0 mm 2 m/S 746 mmHg 53%
    17:00 +23°C° 0 mm 2 m/S 746 mmHg 59%
    18:00 +22°C° 0 mm 1 m/S 746 mmHg 64%
    19:00 +20°C° 0 mm 1 m/S 745 mmHg 69%
    20:00 +19°C° 0 mm 1 m/S 745 mmHg 72%
    21:00 +17°C° 0 mm 2 m/S 745 mmHg 76%
    22:00 +17°C° 0 mm 2 m/S 745 mmHg 79%
    23:00 +16°C° 0 mm 2 m/S 745 mmHg 79%

    übermorgen, 26 April, Freitag

    Zeit Temperatur Niederschläge Wind Luftdruck Luftfeuchtigkeit
    00:00 +16°C° 0 mm 3 m/S 745 mmHg 79%
    01:00 +14°C° 0 mm 3 m/S 744 mmHg 79%
    02:00 +14°C° 0 mm 3 m/S 744 mmHg 80%
    03:00 +13°C° 0 mm 3 m/S 744 mmHg 81%
    04:00 +13°C° 0 mm 3 m/S 743 mmHg 81%
    05:00 +14°C° 0 mm 4 m/S 743 mmHg 76%
    06:00 +17°C° 0 mm 4 m/S 743 mmHg 71%
    07:00 +17°C° 0 mm 5 m/S 742 mmHg 67%
    08:00 +19°C° 0 mm 5 m/S 742 mmHg 63%
    09:00 +20°C° 0 mm 5 m/S 742 mmHg 59%
    10:00 +21°C° 0 mm 5 m/S 742 mmHg 55%
    11:00 +22°C° 0 mm 4 m/S 742 mmHg 52%
    12:00 +23°C° 0 mm 4 m/S 742 mmHg 48%
    13:00 +26°C° 0 mm 4 m/S 742 mmHg 45%
    14:00 +26°C° 0 mm 4 m/S 741 mmHg 45%
    15:00 +26°C° 0 mm 4 m/S 741 mmHg 45%
    16:00 +27°C° 0 mm 3 m/S 740 mmHg 45%
    17:00 +25°C° 0 mm 3 m/S 741 mmHg 50%
    18:00 +23°C° 0 mm 2 m/S 741 mmHg 56%
    19:00 +21°C° 0 mm 1 m/S 741 mmHg 61%
    20:00 +20°C° 0 mm 2 m/S 741 mmHg 65%
    21:00 +19°C° 0 mm 2 m/S 741 mmHg 68%
    22:00 +18°C° 0 mm 3 m/S 741 mmHg 71%
    23:00 +17°C° 0 mm 4 m/S 742 mmHg 78%

    27 April, Samstag

    Zeit Temperatur Niederschläge Wind Luftdruck Luftfeuchtigkeit
    00:00 +15°C° 0 mm 4 m/S 742 mmHg 85%
    01:00 +14°C° 0 mm 5 m/S 742 mmHg 91%
    02:00 +14°C° 0.3 mm 5 m/S 742 mmHg 91%
    03:00 +13°C° 0.3 mm 5 m/S 743 mmHg 90%
    04:00 +11°C° 0.3 mm 6 m/S 743 mmHg 89%
    05:00 +11°C° 0 mm 6 m/S 743 mmHg 88%
    06:00 +10°C° 0 mm 6 m/S 743 mmHg 87%
    07:00 +10°C° 0 mm 6 m/S 744 mmHg 86%
    08:00 +10°C° 0 mm 6 m/S 744 mmHg 83%
    09:00 +11°C° 0 mm 6 m/S 744 mmHg 80%
    10:00 +13°C° 0 mm 6 m/S 745 mmHg 77%
    11:00 +13°C° 0 mm 6 m/S 745 mmHg 74%
    12:00 +13°C° 0 mm 5 m/S 745 mmHg 72%
    13:00 +14°C° 0 mm 4 m/S 745 mmHg 69%
    14:00 +14°C° 0 mm 4 m/S 744 mmHg 66%
    15:00 +15°C° 0 mm 4 m/S 744 mmHg 64%
    16:00 +15°C° 0 mm 4 m/S 744 mmHg 61%
    17:00 +14°C° 0.1 mm 3 m/S 744 mmHg 64%
    18:00 +14°C° 0.1 mm 2 m/S 744 mmHg 68%
    19:00 +14°C° 0.1 mm 2 m/S 744 mmHg 71%
    20:00 +13°C° 0 mm 2 m/S 744 mmHg 71%
    21:00 +13°C° 0 mm 2 m/S 745 mmHg 70%
    22:00 +13°C° 0 mm 2 m/S 745 mmHg 70%
    23:00 +12°C° 0 mm 2 m/S 745 mmHg 72%

    28 April, Sonntag

    Zeit Temperatur Niederschläge Wind Luftdruck Luftfeuchtigkeit
    00:00 +12°C° 0 mm 2 m/S 745 mmHg 74%
    01:00 +12°C° 0 mm 2 m/S 745 mmHg 75%
    02:00 +10°C° 0 mm 2 m/S 745 mmHg 77%
    03:00 +10°C° 0 mm 2 m/S 745 mmHg 79%
    04:00 +10°C° 0 mm 2 m/S 745 mmHg 81%
    05:00 +10°C° 0 mm 2 m/S 746 mmHg 82%
    06:00 +11°C° 0 mm 3 m/S 746 mmHg 82%
    07:00 +11°C° 0 mm 4 m/S 746 mmHg 83%
    08:00 +12°C° 0 mm 4 m/S 746 mmHg 80%
    09:00 +13°C° 0 mm 4 m/S 747 mmHg 77%
    10:00 +14°C° 0 mm 4 m/S 747 mmHg 73%
    11:00 +14°C° 0.4 mm 4 m/S 747 mmHg 74%
    12:00 +14°C° 0.4 mm 4 m/S 747 mmHg 74%
    13:00 +14°C° 0.4 mm 4 m/S 747 mmHg 74%
    14:00 +14°C° 0.4 mm 4 m/S 747 mmHg 75%
    15:00 +14°C° 0.4 mm 4 m/S 747 mmHg 77%
    16:00 +14°C° 0.4 mm 4 m/S 747 mmHg 78%
    17:00 +13°C° 0.4 mm 3 m/S 747 mmHg 82%
    18:00 +12°C° 0.4 mm 3 m/S 747 mmHg 86%
    19:00 +13°C° 0.4 mm 2 m/S 747 mmHg 90%
    20:00 +11°C° 0.5 mm 3 m/S 747 mmHg 91%
    21:00 +11°C° 0.5 mm 3 m/S 747 mmHg 91%
    22:00 +11°C° 0.5 mm 4 m/S 748 mmHg 92%
    23:00 +10°C° 0.7 mm 4 m/S 747 mmHg 92%

    29 April, Montag

    Zeit Temperatur Niederschläge Wind Luftdruck Luftfeuchtigkeit
    00:00 +10°C° 0.7 mm 4 m/S 747 mmHg 92%
    01:00 +9°C° 0.7 mm 5 m/S 747 mmHg 93%
    02:00 +9°C° 0.4 mm 5 m/S 747 mmHg 93%
    03:00 +8°C° 0.4 mm 5 m/S 747 mmHg 93%
    04:00 +8°C° 0.4 mm 6 m/S 747 mmHg 93%
    05:00 +8°C° 0.1 mm 6 m/S 747 mmHg 93%
    06:00 +8°C° 0.1 mm 6 m/S 747 mmHg 92%
    07:00 +8°C° 0.1 mm 6 m/S 746 mmHg 92%
    08:00 +9°C° 0.1 mm 6 m/S 746 mmHg 92%
    09:00 +9°C° 0.1 mm 5 m/S 746 mmHg 91%
    10:00 +11°C° 0.1 mm 4 m/S 746 mmHg 90%
    11:00 +11°C° 0.3 mm 4 m/S 746 mmHg 91%
    12:00 +12°C° 0.3 mm 4 m/S 746 mmHg 91%
    13:00 +12°C° 0.3 mm 4 m/S 746 mmHg 91%
    14:00 +13°C° 0.6 mm 4 m/S 746 mmHg 91%
    15:00 +13°C° 0.6 mm 5 m/S 746 mmHg 91%
    16:00 +13°C° 0.6 mm 5 m/S 746 mmHg 91%
    17:00 +12°C° 0.8 mm 5 m/S 746 mmHg 92%
    18:00 +12°C° 0.8 mm 5 m/S 746 mmHg 92%
    19:00 +10°C° 0.8 mm 5 m/S 747 mmHg 93%
    20:00 +10°C° 0.2 mm 5 m/S 747 mmHg 93%
    21:00 +9°C° 0.2 mm 5 m/S 747 mmHg 93%
    22:00 +9°C° 0.2 mm 5 m/S 747 mmHg 92%
    23:00 +9°C° 0.1 mm 5 m/S 748 mmHg 93%
    Mehr zeigen